User: anonymous   Login
Location: Erp
(42.9417°N, 1.2009°E)
Time: 15:27:17
(UTC+00:00)
Language:

Cosmos 1190 Rocket - Orbit

View from above orbital plane
View from above orbital plane
View from above satellite
View from above satellite

Ground track
Ground track

The orbit is defined by the following mean orbital elements,

1 11870U          26076.32763041 +.00000000 +00000-0 +74565-4 0 00008
2 11870  74.0507  96.0574 0016666 329.0150  31.0020 14.38390673    08
Epoch (UTC): 17 March 2026 07:51:47
Eccentricity: 0.0016666
inclination: 74.0507°
perigee height: 752 km
apogee height: 776 km
right ascension of ascending node: 96.0574°
argument of perigee: 329.0150°
revolutions per day: 14.38390673
mean anomaly at epoch: 31.0020°

The dashed part of the orbit path shows where the satellite is in the earth's shadow,  

DLR